Time,TemperatureF,DewpointF,PressureIn,WindDirection,WindDirectionDegrees,WindSpeedMPH,WindSpeedGustMPH,Humidity,HourlyPrecipIn,Conditions,Clouds,dailyrainin,SoftwareType,DateUTC
2013-07-21 20:00:00,58.5,50.3,30.06,ENE,77,7.0,14.0,74,0.00,CLR,,0.00,WeatherDisplay:10.37,2013-07-21 19:00:00,
2013-07-21 20:10:00,58.6,50.7,30.05,ENE,68,9.0,11.0,75,0.00,CLR,,0.00,WeatherDisplay:10.37,2013-07-21 19:10:00,
2013-07-21 20:20:00,58.5,50.6,30.05,ENE,78,5.0,10.0,75,0.00,CLR,,0.00,WeatherDisplay:10.37,2013-07-21 19:20:00,
2013-07-21 20:40:00,58.1,50.6,30.05,ENE,73,7.0,11.0,76,0.00,CLR,,0.00,WeatherDisplay:10.37,2013-07-21 19:40:00,
2013-07-21 20:50:00,57.9,50.8,30.04,ENE,78,6.0,10.0,77,0.00,CLR,,0.00,WeatherDisplay:10.37,2013-07-21 19:50:00,
2013-07-21 21:00:00,57.9,51.1,30.04,ENE,68,6.0,9.0,78,0.00,CLR,,0.00,WeatherDisplay:10.37,2013-07-21 20:00:00,
2013-07-21 21:10:00,57.6,50.8,30.04,East,83,9.0,11.0,78,0.00,CLR,,0.00,WeatherDisplay:10.37,2013-07-21 20:10:00,
2013-07-21 21:20:00,57.4,50.9,30.04,ENE,74,5.0,11.0,79,0.00,CLR,,0.00,WeatherDisplay:10.37,2013-07-21 20:20:00,
2013-07-21 21:30:00,57.4,50.9,30.04,ENE,77,6.0,10.0,79,0.00,CLR,,0.00,WeatherDisplay:10.37,2013-07-21 20:30:00,
2013-07-21 21:40:00,57.1,51.0,30.04,ENE,78,6.0,10.0,80,0.00,CLR,,0.00,WeatherDisplay:10.37,2013-07-21 20:40:00,
2013-07-21 21:50:00,57.0,51.2,30.04,ENE,71,6.0,9.0,81,0.00,CLR,,0.00,WeatherDisplay:10.37,2013-07-21 20:50:00,
2013-07-21 22:00:00,57.0,51.2,30.04,East,87,6.0,10.0,81,0.00,CLR,,0.00,WeatherDisplay:10.37,2013-07-21 21:00:00,
2013-07-21 22:10:00,57.0,51.6,30.04,East,86,3.0,9.0,82,0.00,CLR,,0.00,WeatherDisplay:10.37,2013-07-21 21:10:00,
2013-07-21 22:20:00,57.0,51.6,30.04,East,81,3.0,7.0,82,0.00,CLR,,0.00,WeatherDisplay:10.37,2013-07-21 21:20:00,
2013-07-21 22:30:00,57.0,51.9,30.04,East,100,2.0,6.0,83,0.00,CLR,,0.00,WeatherDisplay:10.37,2013-07-21 21:30:00,
2013-07-21 22:40:00,57.0,51.9,30.04,East,79,5.0,8.0,83,0.00,CLR,,0.00,WeatherDisplay:10.37,2013-07-21 21:40:00,
2013-07-21 22:50:00,56.8,51.7,30.04,ENE,72,5.0,10.0,83,0.00,CLR,,0.00,WeatherDisplay:10.37,2013-07-21 21:50:00,
2013-07-21 23:00:00,57.0,51.9,30.04,ENE,67,8.0,12.0,83,0.00,CLR,,0.00,WeatherDisplay:10.37,2013-07-21 22:00:00,
2013-07-21 23:10:00,57.1,51.9,30.03,ENE,69,6.0,8.0,83,0.00,CLR,,0.00,WeatherDisplay:10.37,2013-07-21 22:10:00,
2013-07-21 23:20:00,57.2,52.1,30.03,East,84,3.0,7.0,83,0.00,CLR,,0.00,WeatherDisplay:10.37,2013-07-21 22:20:00,
2013-07-21 23:30:00,57.2,52.1,30.03,East,89,3.0,9.0,83,0.00,CLR,,0.00,WeatherDisplay:10.37,2013-07-21 22:30:00,
2013-07-21 23:40:00,57.3,52.2,30.03,East,79,3.0,7.0,83,0.00,CLR,,0.00,WeatherDisplay:10.37,2013-07-21 22:40:00,
2013-07-21 23:50:00,57.2,52.1,30.03,East,81,5.0,8.0,83,0.00,CLR,,0.00,WeatherDisplay:10.37,2013-07-21 22:50:00,